Погода в Святогорье

Россия / Хабаровский край     47°51′08″N   135°25′31″E
темп.,
°C
ветер,
м/с
пор.,
м/с
влажн.,
%
обл.,
%
осадки,
мм/ч
давл.,
гПа
погр.,
м
12 апреля, пн
пн1201:00+8зсз1174100 0.3 101916
04:00+7юз1190100 2.0 101930
07:00+6с0095100 1.0 101828
10:00+8ю3985100 1.4 1017392
13:00+13юз41158100 0.1 10141712
16:00+18юз7143654 0.1 10102762
19:00+15ююз715449 0.0 10081558
22:00+12ююз81657100 0.0 10081006
13 апреля, вт
вт1301:00+11ююз71662100 0.0 10061146
04:00+9ююз51271100 0.8 10041196
07:00+5з4792100 1.5 1004857
10:000зюз4894100 6.2 1005610
13:00−1зюз4888100 3.3 1006835
16:00+1з5960100 4.1 10051521
19:000з6115189 0.0 10051216
22:00−4зюз41164100 0.0 1006841
14 апреля, ср
ср1401:00−4з6116898 0.0 1006974
04:00−4зюз4106747 0.0 1007907
07:00−5зюз510684 0.0 10081004
10:00−1з61048100 0.0 10092115
13:00+1з6836100 0.1 10092802
16:00+1з5838100 0.1 10102767
19:000з37445 0.0 1011345
22:00−5ююз23715 0.0 101345
15 апреля, чт
чт1501:00−5ююз25735 0.0 1014102
04:00−5ююз25771 0.0 1016117
07:00−5ююз24740 0.0 1017112
10:00+2юз23420 0.0 10171246
13:00+6зюз23295 0.0 10171677
16:00+7ююз132742 0.0 10151551
19:00+5в224399 0.0 101420
22:00+2юв2354100 0.0 101444
16 апреля, пт
пт1601:00+2юв3856100 0.0 1011139
04:00+2юв3760100 0.0 1010137
07:00+2юв386086 0.0 1009167
10:00+9ююв51346100 0.0 10071367
13:00+11ююв71757100 0.1 10052064
16:00+7ююз496442 1.9 10081406
19:00+6ююв4975100 0.5 1010853
22:00+3ююв4138468 0.5 1011376